Time,TemperatureF,DewpointF,PressureIn,WindDirection,WindDirectionDegrees,WindSpeedMPH,WindSpeedGustMPH,Humidity,HourlyPrecipIn,Conditions,Clouds,dailyrainin,SoftwareType,DateUTC
2013-04-26 00:03:00,35.0,31.0,30.32,West,277,0.0,1.0,85,0.00,,,-99.99,,2013-04-26 04:03:00,
2013-04-26 00:12:00,35.0,31.0,30.32,West,277,0.0,1.0,85,0.00,,,-99.99,,2013-04-26 04:12:00,
2013-04-26 00:23:00,35.0,31.0,30.31,West,277,0.0,1.0,86,0.00,,,-99.99,,2013-04-26 04:23:00,
2013-04-26 00:32:00,34.0,30.0,30.32,West,277,0.0,0.0,86,0.00,,,-99.99,,2013-04-26 04:32:00,
2013-04-26 00:43:00,34.0,30.0,30.32,West,277,0.0,0.0,86,0.00,,,-99.99,,2013-04-26 04:43:00,
2013-04-26 00:53:00,33.0,30.0,30.32,West,277,0.0,1.0,87,0.00,,,-99.99,,2013-04-26 04:53:00,
2013-04-26 01:02:00,33.0,30.0,30.32,West,277,0.0,0.0,88,0.00,,,-99.99,,2013-04-26 05:02:00,
2013-04-26 01:13:00,33.0,30.0,30.32,West,277,0.0,0.0,88,0.00,,,-99.99,,2013-04-26 05:13:00,
2013-04-26 01:22:00,32.0,29.0,30.32,West,277,0.0,0.0,89,0.00,,,-99.99,,2013-04-26 05:22:00,
2013-04-26 01:32:00,32.0,29.0,30.33,West,277,0.0,0.0,89,0.00,,,-99.99,,2013-04-26 05:32:00,
2013-04-26 01:42:00,32.0,29.0,30.33,West,277,0.0,0.0,89,0.00,,,-99.99,,2013-04-26 05:42:00,
2013-04-26 01:52:00,32.0,30.0,30.33,West,277,0.0,1.0,91,0.00,,,-99.99,,2013-04-26 05:52:00,
2013-04-26 02:02:00,32.0,29.0,30.33,West,277,0.0,0.0,89,0.00,,,-99.99,,2013-04-26 06:02:00,
2013-04-26 02:11:00,32.0,29.0,30.33,West,277,0.0,0.0,89,0.00,,,-99.99,,2013-04-26 06:11:00,
2013-04-26 02:21:00,31.0,28.0,30.33,West,277,0.0,0.0,90,0.00,,,-99.99,,2013-04-26 06:21:00,
2013-04-26 02:32:00,31.0,28.0,30.33,West,277,0.0,0.0,90,0.00,,,-99.99,,2013-04-26 06:32:00,
2013-04-26 02:42:00,31.0,28.0,30.33,West,277,0.0,0.0,90,0.00,,,-99.99,,2013-04-26 06:42:00,
2013-04-26 02:52:00,31.0,29.0,30.34,West,277,0.0,0.0,91,0.00,,,-99.99,,2013-04-26 06:52:00,
2013-04-26 03:01:00,31.0,29.0,30.33,West,277,0.0,0.0,91,0.00,,,-99.99,,2013-04-26 07:01:00,
2013-04-26 03:11:00,31.0,29.0,30.33,West,277,0.0,0.0,91,0.00,,,-99.99,,2013-04-26 07:11:00,
2013-04-26 03:22:00,32.0,30.0,30.33,West,277,0.0,0.0,92,0.00,,,-99.99,,2013-04-26 07:22:00,
2013-04-26 03:32:00,31.0,29.0,30.33,West,277,0.0,0.0,91,0.00,,,-99.99,,2013-04-26 07:32:00,
2013-04-26 03:42:00,31.0,29.0,30.33,West,277,0.0,0.0,91,0.00,,,-99.99,,2013-04-26 07:42:00,
2013-04-26 03:52:00,31.0,29.0,30.33,West,277,0.0,1.0,92,0.00,,,-99.99,,2013-04-26 07:52:00,
2013-04-26 04:02:00,30.0,28.0,30.33,West,277,0.0,0.0,91,0.00,,,-99.99,,2013-04-26 08:02:00,
2013-04-26 04:11:00,30.0,28.0,30.33,West,277,0.0,0.0,91,0.00,,,-99.99,,2013-04-26 08:11:00,
2013-04-26 04:22:00,30.0,28.0,30.33,West,277,0.0,0.0,92,0.00,,,-99.99,,2013-04-26 08:22:00,
2013-04-26 04:32:00,30.0,28.0,30.34,West,277,0.0,0.0,92,0.00,,,-99.99,,2013-04-26 08:32:00,
2013-04-26 04:42:00,30.0,28.0,30.34,West,277,0.0,0.0,92,0.00,,,-99.99,,2013-04-26 08:42:00,
2013-04-26 04:52:00,30.0,28.0,30.34,West,277,0.0,0.0,92,0.00,,,-99.99,,2013-04-26 08:52:00,
2013-04-26 05:01:00,30.0,28.0,30.34,West,277,0.0,1.0,92,0.00,,,-99.99,,2013-04-26 09:01:00,
2013-04-26 05:11:00,30.0,28.0,30.34,West,277,0.0,1.0,92,0.00,,,-99.99,,2013-04-26 09:11:00,
2013-04-26 05:22:00,30.0,28.0,30.34,West,277,0.0,0.0,92,0.00,,,-99.99,,2013-04-26 09:22:00,
2013-04-26 05:33:00,30.0,28.0,30.34,West,277,0.0,1.0,93,0.00,,,-99.99,,2013-04-26 09:33:00,
2013-04-26 05:43:00,30.0,28.0,30.34,West,277,0.0,1.0,93,0.00,,,-99.99,,2013-04-26 09:43:00,
2013-04-26 05:53:00,30.0,28.0,30.34,West,277,0.0,1.0,93,0.00,,,-99.99,,2013-04-26 09:53:00,
2013-04-26 06:03:00,30.0,28.0,30.34,West,277,0.0,1.0,93,0.00,,,-99.99,,2013-04-26 10:03:00,
2013-04-26 06:12:00,30.0,28.0,30.34,West,277,0.0,1.0,93,0.00,,,-99.99,,2013-04-26 10:12:00,
2013-04-26 06:23:00,30.0,28.0,30.34,West,277,0.0,0.0,93,0.00,,,-99.99,,2013-04-26 10:23:00,
2013-04-26 06:33:00,30.0,28.0,30.34,West,277,0.0,0.0,93,0.00,,,-99.99,,2013-04-26 10:33:00,
2013-04-26 06:42:00,30.0,28.0,30.34,West,277,0.0,0.0,93,0.00,,,-99.99,,2013-04-26 10:42:00,
2013-04-26 06:52:00,31.0,29.0,30.34,West,277,0.0,1.0,94,0.00,,,-99.99,,2013-04-26 10:52:00,
2013-04-26 07:02:00,30.0,28.0,30.35,West,277,0.0,0.0,92,0.00,,,-99.99,,2013-04-26 11:02:00,
2013-04-26 07:11:00,30.0,28.0,30.35,West,277,0.0,0.0,92,0.00,,,-99.99,,2013-04-26 11:11:00,
2013-04-26 07:22:00,30.0,28.0,30.35,West,277,0.0,0.0,92,0.00,,,-99.99,,2013-04-26 11:22:00,
2013-04-26 07:32:00,30.0,28.0,30.36,West,277,0.0,0.0,93,0.00,,,-99.99,,2013-04-26 11:32:00,
2013-04-26 07:42:00,30.0,28.0,30.36,West,277,0.0,0.0,93,0.00,,,-99.99,,2013-04-26 11:42:00,
2013-04-26 07:52:00,30.0,28.0,30.37,West,277,0.0,0.0,93,0.00,,,-99.99,,2013-04-26 11:52:00,
2013-04-26 08:01:00,31.0,29.0,30.37,West,277,0.0,1.0,93,0.00,,,-99.99,,2013-04-26 12:01:00,
2013-04-26 08:11:00,31.0,29.0,30.37,West,277,0.0,1.0,93,0.00,,,-99.99,,2013-04-26 12:11:00,
2013-04-26 08:21:00,32.0,30.0,30.37,West,277,0.0,1.0,93,0.01,,,-99.99,,2013-04-26 12:21:00,
2013-04-26 08:32:00,33.0,31.0,30.38,West,277,0.0,0.0,92,0.01,,,-99.99,,2013-04-26 12:32:00,
2013-04-26 08:42:00,33.0,31.0,30.38,West,277,0.0,0.0,92,0.01,,,-99.99,,2013-04-26 12:42:00,
2013-04-26 08:52:00,34.0,32.0,30.38,West,277,0.0,0.0,91,0.01,,,-99.99,,2013-04-26 12:52:00,
2013-04-26 09:01:00,36.0,33.0,30.37,SE,136,0.0,2.0,88,0.01,,,-99.99,,2013-04-26 13:01:00,
2013-04-26 09:11:00,36.0,33.0,30.37,SE,136,0.0,2.0,88,0.01,,,-99.99,,2013-04-26 13:11:00,
2013-04-26 09:22:00,38.0,34.0,30.38,SE,135,0.0,0.0,86,0.00,,,-99.99,,2013-04-26 13:22:00,
2013-04-26 09:32:00,40.0,35.0,30.39,South,179,1.0,2.0,82,0.00,,,-99.99,,2013-04-26 13:32:00,
2013-04-26 09:42:00,40.0,35.0,30.39,South,179,1.0,2.0,82,0.00,,,-99.99,,2013-04-26 13:42:00,
2013-04-26 09:52:00,45.0,34.0,30.37,WNW,296,3.0,11.0,65,0.00,,,-99.99,,2013-04-26 13:52:00,
2013-04-26 10:01:00,46.0,33.0,30.38,WSW,238,3.0,10.0,60,0.00,,,-99.99,,2013-04-26 14:01:00,
2013-04-26 10:11:00,46.0,33.0,30.38,WSW,238,3.0,10.0,60,0.00,,,-99.99,,2013-04-26 14:11:00,
2013-04-26 10:21:00,47.0,34.0,30.38,WNW,292,2.0,7.0,60,0.00,,,-99.99,,2013-04-26 14:21:00,
2013-04-26 10:32:00,47.0,32.0,30.38,WSW,257,8.0,13.0,56,0.00,,,-99.99,,2013-04-26 14:32:00,
2013-04-26 10:42:00,47.0,32.0,30.38,WSW,257,8.0,13.0,56,0.00,,,-99.99,,2013-04-26 14:42:00,
2013-04-26 10:51:00,47.0,33.0,30.38,West,265,9.0,15.0,57,0.00,,,-99.99,,2013-04-26 14:51:00,
2013-04-26 11:01:00,49.0,32.0,30.37,SW,219,8.0,13.0,52,0.00,,,-99.99,,2013-04-26 15:01:00,
2013-04-26 11:12:00,49.0,32.0,30.37,SW,219,8.0,13.0,52,0.00,,,-99.99,,2013-04-26 15:12:00,
2013-04-26 11:21:00,50.0,33.0,30.37,West,264,9.0,18.0,52,0.00,,,-99.99,,2013-04-26 15:21:00,
2013-04-26 11:33:00,51.0,34.0,30.37,WSW,252,8.0,16.0,51,0.00,,,-99.99,,2013-04-26 15:33:00,
2013-04-26 11:43:00,51.0,34.0,30.37,WSW,252,8.0,16.0,51,0.00,,,-99.99,,2013-04-26 15:43:00,
2013-04-26 11:53:00,50.0,31.0,30.36,West,271,9.0,18.0,47,0.00,,,-99.99,,2013-04-26 15:53:00,
2013-04-26 12:03:00,51.0,32.0,30.36,SW,219,10.0,17.0,48,0.00,,,-99.99,,2013-04-26 16:03:00,
2013-04-26 12:13:00,51.0,32.0,30.36,SW,219,10.0,17.0,48,0.00,,,-99.99,,2013-04-26 16:13:00,
2013-04-26 12:23:00,52.0,31.0,30.35,SW,217,3.0,18.0,45,0.00,,,-99.99,,2013-04-26 16:23:00,
2013-04-26 12:33:00,52.0,31.0,30.35,SW,225,12.0,17.0,45,0.00,,,-99.99,,2013-04-26 16:33:00,
2013-04-26 12:42:00,52.0,31.0,30.35,SW,225,12.0,17.0,45,0.00,,,-99.99,,2013-04-26 16:42:00,
2013-04-26 12:53:00,53.0,31.0,30.34,SW,236,11.0,20.0,43,0.00,,,-99.99,,2013-04-26 16:53:00,
2013-04-26 13:02:00,53.0,31.0,30.34,WSW,244,10.0,20.0,43,0.00,,,-99.99,,2013-04-26 17:02:00,
2013-04-26 13:12:00,53.0,31.0,30.34,WSW,244,10.0,20.0,43,0.00,,,-99.99,,2013-04-26 17:12:00,
2013-04-26 13:22:00,55.0,32.0,30.33,WNW,291,6.0,17.0,42,0.00,,,0.01,,2013-04-26 17:22:00,
2013-04-26 13:32:00,55.0,32.0,30.32,SSW,211,4.0,17.0,42,0.00,,,0.01,,2013-04-26 17:32:00,
2013-04-26 13:42:00,55.0,32.0,30.32,SSW,211,4.0,17.0,42,0.00,,,0.01,,2013-04-26 17:42:00,
2013-04-26 13:52:00,56.0,33.0,30.33,West,270,10.0,18.0,42,0.00,,,0.01,,2013-04-26 17:52:00,
2013-04-26 14:02:00,56.0,34.0,30.32,West,262,4.0,22.0,43,0.00,,,0.01,,2013-04-26 18:02:00,
2013-04-26 14:12:00,56.0,34.0,30.32,West,262,4.0,22.0,43,0.00,,,0.01,,2013-04-26 18:12:00,
2013-04-26 14:22:00,57.0,35.0,30.31,WSW,249,5.0,19.0,44,0.00,,,0.01,,2013-04-26 18:22:00,
2013-04-26 14:33:00,57.0,34.0,30.31,South,190,6.0,16.0,42,0.00,,,0.01,,2013-04-26 18:33:00,
2013-04-26 14:42:00,57.0,34.0,30.31,South,190,6.0,16.0,42,0.00,,,0.01,,2013-04-26 18:42:00,
2013-04-26 14:52:00,57.0,36.0,30.30,West,267,3.0,16.0,45,0.00,,,0.01,,2013-04-26 18:52:00,
2013-04-26 15:01:00,59.0,35.0,30.30,West,265,10.0,20.0,41,0.00,,,0.01,,2013-04-26 19:01:00,
2013-04-26 15:12:00,59.0,35.0,30.30,West,265,10.0,20.0,41,0.00,,,0.01,,2013-04-26 19:12:00,
2013-04-26 15:22:00,59.0,35.0,30.30,WSW,246,17.0,22.0,40,0.00,,,0.01,,2013-04-26 19:22:00,
2013-04-26 15:32:00,60.0,36.0,30.29,WSW,238,8.0,17.0,40,0.00,,,0.01,,2013-04-26 19:32:00,
2013-04-26 15:42:00,60.0,36.0,30.29,WSW,238,8.0,17.0,40,0.00,,,0.01,,2013-04-26 19:42:00,
2013-04-26 15:52:00,60.0,36.0,30.28,South,184,5.0,17.0,41,0.00,,,0.01,,2013-04-26 19:52:00,
2013-04-26 16:02:00,61.0,36.0,30.27,SSE,167,6.0,17.0,40,0.00,,,0.01,,2013-04-26 20:02:00,
2013-04-26 16:11:00,61.0,36.0,30.27,SSE,167,6.0,17.0,40,0.00,,,0.01,,2013-04-26 20:11:00,
2013-04-26 16:21:00,62.0,37.0,30.26,NW,304,6.0,19.0,40,0.00,,,0.01,,2013-04-26 20:21:00,
2013-04-26 16:32:00,63.0,38.0,30.25,NE,53,4.0,16.0,39,0.00,,,0.01,,2013-04-26 20:32:00,
2013-04-26 16:42:00,63.0,38.0,30.25,NE,53,4.0,16.0,39,0.00,,,0.01,,2013-04-26 20:42:00,
2013-04-26 16:52:00,63.0,37.0,30.25,SW,230,12.0,20.0,38,0.00,,,0.01,,2013-04-26 20:52:00,
2013-04-26 17:02:00,63.0,37.0,30.24,WNW,284,5.0,20.0,38,0.00,,,0.01,,2013-04-26 21:02:00,
2013-04-26 17:11:00,63.0,37.0,30.24,WNW,284,5.0,20.0,38,0.00,,,0.01,,2013-04-26 21:11:00,
2013-04-26 17:22:00,63.0,37.0,30.24,WSW,246,6.0,19.0,38,0.00,,,0.01,,2013-04-26 21:22:00,
2013-04-26 17:33:00,64.0,39.0,30.24,WSW,246,13.0,20.0,39,0.00,,,0.01,,2013-04-26 21:33:00,
2013-04-26 17:42:00,64.0,39.0,30.24,WSW,246,13.0,20.0,39,0.00,,,0.01,,2013-04-26 21:42:00,
2013-04-26 17:52:00,64.0,38.0,30.23,West,263,4.0,14.0,38,0.00,,,0.01,,2013-04-26 21:52:00,
2013-04-26 18:03:00,64.0,38.0,30.23,West,272,16.0,21.0,38,0.00,,,0.01,,2013-04-26 22:03:00,
2013-04-26 18:12:00,64.0,38.0,30.23,West,272,16.0,21.0,38,0.00,,,0.01,,2013-04-26 22:12:00,
2013-04-26 18:23:00,64.0,38.0,30.24,West,267,14.0,18.0,38,0.00,,,0.01,,2013-04-26 22:23:00,
2013-04-26 18:33:00,64.0,38.0,30.24,WSW,246,7.0,24.0,38,0.00,,,0.01,,2013-04-26 22:33:00,
2013-04-26 18:42:00,64.0,38.0,30.24,WSW,246,7.0,24.0,38,0.00,,,0.01,,2013-04-26 22:42:00,
2013-04-26 18:52:00,64.0,38.0,30.24,West,261,5.0,19.0,38,0.00,,,0.01,,2013-04-26 22:52:00,
2013-04-26 19:02:00,63.0,38.0,30.24,WSW,258,7.0,17.0,40,0.00,,,0.01,,2013-04-26 23:02:00,
2013-04-26 19:12:00,63.0,38.0,30.24,WSW,258,7.0,17.0,40,0.00,,,0.01,,2013-04-26 23:12:00,
2013-04-26 19:21:00,63.0,39.0,30.24,NW,309,3.0,11.0,41,0.00,,,0.01,,2013-04-26 23:21:00,
2013-04-26 19:32:00,63.0,39.0,30.24,West,263,11.0,18.0,41,0.00,,,0.01,,2013-04-26 23:32:00,
2013-04-26 19:42:00,63.0,39.0,30.24,West,263,11.0,18.0,41,0.00,,,0.01,,2013-04-26 23:42:00,
2013-04-26 19:52:00,62.0,39.0,30.24,WSW,241,7.0,19.0,42,0.00,,,0.01,,2013-04-26 23:52:00,
2013-04-26 20:01:00,62.0,40.0,30.24,West,261,7.0,12.0,44,0.00,,,0.01,,2013-04-27 00:01:00,
2013-04-26 20:11:00,62.0,40.0,30.24,West,261,7.0,12.0,44,0.00,,,0.01,,2013-04-27 00:11:00,
2013-04-26 20:21:00,61.0,40.0,30.24,West,259,7.0,14.0,46,0.00,,,0.01,,2013-04-27 00:21:00,
2013-04-26 20:32:00,60.0,40.0,30.24,WNW,303,5.0,14.0,48,0.00,,,0.01,,2013-04-27 00:32:00,
2013-04-26 20:42:00,60.0,40.0,30.24,WNW,303,5.0,14.0,48,0.00,,,0.01,,2013-04-27 00:42:00,
2013-04-26 20:51:00,60.0,41.0,30.24,WSW,243,4.0,18.0,49,0.00,,,0.01,,2013-04-27 00:51:00,
2013-04-26 21:01:00,60.0,41.0,30.24,West,280,2.0,10.0,50,0.00,,,0.01,,2013-04-27 01:01:00,
2013-04-26 21:12:00,60.0,41.0,30.24,West,280,2.0,10.0,50,0.00,,,0.01,,2013-04-27 01:12:00,
2013-04-26 21:21:00,59.0,41.0,30.25,WSW,245,0.0,8.0,51,0.00,,,0.01,,2013-04-27 01:21:00,
2013-04-26 21:32:00,59.0,41.0,30.25,WSW,250,1.0,9.0,52,0.00,,,0.01,,2013-04-27 01:32:00,
2013-04-26 21:42:00,59.0,41.0,30.25,WSW,250,1.0,9.0,52,0.00,,,0.01,,2013-04-27 01:42:00,
2013-04-26 21:52:00,59.0,41.0,30.26,WSW,246,0.0,11.0,52,0.00,,,0.01,,2013-04-27 01:52:00,
2013-04-26 22:02:00,58.0,41.0,30.26,West,263,3.0,7.0,53,0.00,,,0.01,,2013-04-27 02:02:00,
2013-04-26 22:11:00,58.0,41.0,30.26,West,263,3.0,7.0,53,0.00,,,0.01,,2013-04-27 02:11:00,
2013-04-26 22:22:00,58.0,42.0,30.26,West,259,0.0,6.0,55,0.00,,,0.01,,2013-04-27 02:22:00,
2013-04-26 22:32:00,58.0,42.0,30.26,West,277,1.0,5.0,55,0.00,,,0.01,,2013-04-27 02:32:00,
2013-04-26 22:42:00,58.0,42.0,30.26,West,277,1.0,5.0,55,0.00,,,0.01,,2013-04-27 02:42:00,
2013-04-26 22:52:00,58.0,42.0,30.25,WSW,251,2.0,10.0,56,0.00,,,0.01,,2013-04-27 02:52:00,
2013-04-26 23:02:00,57.0,41.0,30.26,West,259,0.0,7.0,56,0.00,,,0.01,,2013-04-27 03:02:00,
2013-04-26 23:11:00,57.0,41.0,30.26,West,259,0.0,7.0,56,0.00,,,0.01,,2013-04-27 03:11:00,
2013-04-26 23:22:00,57.0,42.0,30.27,WSW,257,0.0,6.0,57,0.00,,,0.01,,2013-04-27 03:22:00,
2013-04-26 23:33:00,56.0,42.0,30.26,WSW,251,4.0,8.0,59,0.00,,,0.01,,2013-04-27 03:33:00,
2013-04-26 23:43:00,56.0,42.0,30.26,WSW,251,4.0,8.0,59,0.00,,,0.01,,2013-04-27 03:43:00,
2013-04-26 23:53:00,56.0,42.0,30.26,WSW,254,3.0,7.0,60,0.00,,,0.01,,2013-04-27 03:53:00,